[[{"header":{"parameterUnit":"m.s-1","parameterCategory":2,"la1":30.2991,"la2":30.254,"lo1":-89.0895,"lo2":-89.0444,"dy":0.0017,"dx":0.0017,"nx":28,"ny":28,"refTime":"2025-12-04T03:00:00:Z","depth":"0","parameterNumber":2,"parameterNumberName":"U-component_of_CURRENTS"},"data":[0,0,0,0,0,0,0,0,0,0,0,0,0,0,0,0,0,0,0,0,0,0,0,0,0,0,0,0,0,0,0,0,0,0,0,0,0,0,0,0,0,0,0,0,0,0,0,0,0,0,0,0,0,0,0,0,0,0,-0.3466,-0.3466,0,-0.3492,-0.3492,-0.3492,-0.3459,-0.3458,-0.3457,-0.3456,-0.3387,-0.3386,-0.3385,0,0,0,0,0,0,0,0,0,0,0,0,0,-0.337,-0.3371,-0.3466,-0.3466,-0.3467,-0.3492,-0.3492,-0.3492,-0.3459,-0.3458,-0.3457,-0.3456,-0.3388,-0.3386,-0.3385,0,0,0,0,0,0,0,0,0,0,0,0,0,-0.3402,-0.3372,-0.3465,-0.3456,-0.3456,-0.3492,-0.3492,-0.3492,-0.3459,-0.3458,-0.3457,-0.3455,-0.3388,-0.3386,-0.3385,-0.3403,0,0,-0.338,-0.338,0,0,0,0,0,0,0,0,-0.34,-0.3405,-0.3457,-0.3457,-0.3456,-0.3474,-0.3433,-0.3459,-0.346,-0.3454,-0.3456,-0.3455,-0.3411,-0.3407,-0.3412,-0.3399,-0.3396,-0.338,-0.3379,-0.3379,-0.3378,0,0,0,0,0,0,0,-0.3398,-0.3404,-0.3472,-0.3458,-0.3457,-0.3445,-0.3448,-0.3438,-0.3435,-0.3455,-0.3453,-0.3462,-0.3409,-0.3413,-0.3409,-0.3395,-0.338,-0.3379,-0.3378,-0.3377,-0.3402,-0.3404,0,0,0,0,0,0,-0.3405,-0.3402,-0.3472,-0.3474,-0.3428,-0.3448,-0.3451,-0.3467,-0.3437,-0.3433,-0.3463,-0.346,-0.3416,-0.3411,-0.3407,-0.3427,-0.3379,-0.3377,-0.3376,-0.3401,-0.3403,-0.3404,0,0,0,0,0,0,-0.3403,-0.3411,-0.3471,-0.344,-0.3447,-0.3452,-0.3469,-0.3468,-0.3468,-0.3446,-0.3439,-0.3464,-0.3415,-0.3409,-0.3406,-0.3423,-0.3377,-0.3375,-0.3399,-0.3401,-0.3403,-0.3466,0,0,0,0,0,0,-0.34,-0.341,-0.3417,-0.3441,-0.345,-0.3498,-0.3471,-0.347,-0.3478,-0.3474,-0.3444,-0.3437,-0.3414,-0.3408,-0.3404,-0.342,-0.3374,-0.3397,-0.34,-0.3403,-0.3462,-0.347,-0.3477,0,0,0,0,0,-0.3396,-0.3417,-0.3418,-0.3426,-0.3462,-0.35,-0.3503,-0.3498,-0.3479,-0.349,-0.347,-0.3438,-0.3424,-0.3409,-0.3403,-0.3419,-0.3395,-0.3399,-0.3402,-0.3458,-0.3468,-0.3477,0,0,0,0,0,0,-0.3374,-0.3417,-0.3418,-0.3448,-0.3474,-0.3495,-0.3503,-0.3503,-0.3498,-0.3487,-0.3455,-0.3448,-0.3452,-0.3434,-0.3417,-0.3438,-0.3405,-0.3408,-0.345,-0.3459,-0.3466,-0.3469,-0.3373,0,0,0,0,0,-0.3377,-0.34,-0.344,-0.3459,-0.3476,-0.3489,-0.35,-0.3504,-0.3508,-0.3504,-0.3486,-0.347,-0.3466,-0.3459,-0.345,-0.3461,-0.3428,-0.3471,-0.3478,-0.3485,-0.3486,-0.3461,-0.3465,-0.3416,-0.3416,-0.3416,0,0,-0.3368,-0.3397,-0.3407,-0.3456,-0.347,-0.3508,-0.3491,-0.3517,-0.3541,-0.3497,-0.3509,-0.3492,-0.3476,-0.3488,-0.3488,-0.3472,-0.3482,-0.3489,-0.3495,-0.3492,-0.3465,-0.3469,-0.3473,-0.3418,-0.3418,-0.3417,0,0,-0.3376,-0.3397,-0.3423,-0.3457,-0.3497,-0.3515,-0.3526,-0.3554,-0.3557,-0.3577,-0.3552,-0.3548,-0.3541,-0.3535,-0.3531,-0.3577,-0.3523,-0.3577,-0.3615,-0.3591,-0.3594,-0.3597,-0.3558,-0.3557,-0.3581,-0.3581,-0.3581,0,-0.3363,-0.3406,-0.3434,-0.3478,-0.3505,-0.3522,-0.356,-0.358,-0.36,-0.3605,-0.3586,-0.3582,-0.3565,-0.3581,-0.3601,-0.3592,-0.3564,-0.3579,-0.3599,-0.3601,-0.3602,-0.3562,-0.356,-0.3585,-0.3584,-0.3584,-0.3583,0,-0.3397,-0.3435,-0.3456,-0.3517,-0.3552,-0.3586,-0.363,-0.3652,-0.3653,-0.3664,-0.3673,-0.3655,-0.3647,-0.3651,-0.364,-0.3653,-0.3624,-0.3609,-0.3571,-0.3611,-0.3566,-0.3563,-0.3589,-0.3588,-0.3587,-0.3586,0,0,-0.3348,-0.3458,-0.346,-0.3496,-0.3575,-0.3603,-0.3659,-0.3704,-0.3722,-0.3734,-0.3748,-0.3752,-0.3729,-0.3724,-0.3706,-0.3695,-0.3683,-0.3663,-0.366,-0.3616,-0.3617,-0.3531,-0.3518,-0.3668,-0.3668,-0.3668,-0.358,0,-0.3357,-0.3439,-0.3496,-0.3561,-0.3604,-0.3657,-0.3706,-0.3749,-0.3767,-0.3787,-0.3779,-0.378,-0.3762,-0.375,-0.3742,-0.3699,-0.3676,-0.3707,-0.3593,-0.3589,-0.3501,-0.3512,-0.3408,-0.3315,-0.3576,-0.3575,-0.3575,0,-0.3359,-0.3417,-0.3486,-0.3585,-0.3607,-0.3649,-0.3713,-0.3759,-0.3808,-0.3821,-0.3829,-0.3819,-0.3815,-0.3786,-0.3727,-0.3746,-0.3688,-0.3649,-0.3645,-0.3538,-0.3496,-0.332,-0.3298,-0.3283,-0.3569,-0.3569,-0.3569,0,-0.3288,-0.3402,-0.345,-0.3486,-0.3604,-0.3634,-0.3685,-0.3751,-0.3785,-0.3827,-0.384,-0.3841,-0.3816,-0.3772,-0.3698,-0.371,-0.3616,-0.3616,-0.3481,-0.3474,-0.3348,-0.333,-0.3288,-0.3561,-0.3561,-0.3562,-0.3562,0,-0.3267,-0.3301,-0.3418,-0.3443,-0.3492,-0.3589,-0.3632,-0.3688,-0.376,-0.3783,-0.3833,-0.3833,-0.3809,-0.3759,-0.3702,-0.3569,-0.3608,-0.3481,-0.3445,-0.3367,-0.3352,-0.3303,-0.3323,-0.3558,-0.3559,-0.356,-0.356,0,-0.317,-0.3256,-0.3311,-0.3428,-0.3458,-0.3482,-0.3594,-0.3622,-0.3709,-0.3739,-0.3751,-0.3806,-0.3739,-0.3696,-0.3605,-0.3541,-0.3382,-0.3385,-0.3288,-0.3243,-0.3109,-0.3136,-0.3022,-0.2935,-0.3229,-0.3226,-0.3224,0,-0.3127,-0.3145,-0.3259,-0.3275,-0.332,-0.3383,-0.3422,-0.3559,-0.3597,-0.3704,-0.3702,-0.3689,-0.3631,-0.3491,-0.3391,-0.3259,-0.3251,-0.3089,-0.3097,-0.3079,-0.3084,-0.3098,-0.3035,-0.2955,-0.2951,-0.2947,-0.2944,0,-0.3013,-0.3051,-0.3088,-0.3137,-0.3178,-0.3234,-0.3307,-0.3341,-0.3484,-0.3524,-0.3539,-0.3509,-0.342,-0.3255,-0.3117,-0.3029,-0.3026,-0.3012,-0.3019,-0.2884,-0.287,-0.2776,-0.3039,-0.2913,-0.2916,-0.2919,-0.292,-0.2922,-0.289,-0.2885,-0.2929,-0.2958,-0.3007,-0.3032,-0.3014,-0.3115,-0.315,-0.3167,-0.3288,-0.3211,-0.3156,-0.2952,-0.2865,-0.2723,-0.2774,-0.266,-0.2698,-0.2716,-0.2623,-0.2812,-0.2635,-0.2637,-0.2638,-0.2639,-0.264,0,-0.2714,-0.2724,-0.2744,-0.2769,-0.2743,-0.2838,-0.2883,-0.2829,-0.2796,-0.2891,-0.2879,-0.2865,-0.2719,-0.2685,-0.2575,-0.246,-0.2403,-0.2408,-0.2425,-0.2375,-0.2551,-0.2531,-0.2293,-0.2293,-0.2293,-0.2293,-0.2293,-0.2293,-0.2616,-0.2564,-0.2586,-0.2482,-0.249,-0.2389,-0.2365,-0.2325,-0.2347,-0.2309,-0.2358,-0.2443,-0.2468,-0.2624,-0.248,-0.2363,-0.2302,-0.2229,-0.2244,-0.2419,-0.2447,-0.2473,-0.246,-0.221,-0.221,-0.1996,-0.1995,-0.1994]},{"header":{"parameterUnit":"m.s-1","parameterCategory":2,"la1":30.2991,"la2":30.254,"lo1":-89.0895,"lo2":-89.0444,"dy":0.0017,"dx":0.0017,"nx":28,"ny":28,"refTime":"2025-12-04T03:00:00:Z","depth":"0","parameterNumber":3,"parameterNumberName":"V-component_of_CURRENTS"},"data":[0,0,0,0,0,0,0,0,0,0,0,0,0,0,0,0,0,0,0,0,0,0,0,0,0,0,0,0,0,0,0,0,0,0,0,0,0,0,0,0,0,0,0,0,0,0,0,0,0,0,0,0,0,0,0,0,0,0,-0.0398,-0.0397,0,-0.027,-0.0268,-0.0266,-0.0181,-0.018,-0.018,-0.018,-0.0002,0.0002,0.0006,0,0,0,0,0,0,0,0,0,0,0,0,0,-0.0491,-0.049,-0.0398,-0.0397,-0.0396,-0.027,-0.0268,-0.0266,-0.0181,-0.018,-0.018,-0.0179,-0.0004,0.0001,0.0007,0,0,0,0,0,0,0,0,0,0,0,0,0,-0.0414,-0.049,-0.0399,-0.0339,-0.0333,-0.027,-0.0268,-0.0265,-0.0181,-0.018,-0.018,-0.0179,-0.0006,0.0001,0.0007,0.0036,0,0,0.0027,0.003,0,0,0,0,0,0,0,0,-0.0418,-0.041,-0.035,-0.0343,-0.0336,-0.0242,-0.0236,-0.0163,-0.0181,-0.0237,-0.018,-0.0179,-0.008,-0.0067,-0.0042,0.0044,0.0052,0.0028,0.0032,0.0035,0.0036,0,0,0,0,0,0,0,-0.0424,-0.0415,-0.0345,-0.0348,-0.034,-0.0292,-0.0281,-0.0221,-0.0161,-0.0232,-0.0226,-0.0215,-0.0075,-0.0049,-0.0037,0.0054,0.0028,0.0033,0.0037,0.004,0.019,0.019,0,0,0,0,0,0,-0.0449,-0.0421,-0.0349,-0.0342,-0.0379,-0.0292,-0.0279,-0.0271,-0.0162,-0.0146,-0.0215,-0.0211,-0.006,-0.0045,-0.0031,0.002,0.0034,0.0041,0.0044,0.019,0.019,0.019,0,0,0,0,0,0,-0.0451,-0.0444,-0.0355,-0.0379,-0.0365,-0.0291,-0.0283,-0.0269,-0.0243,-0.0151,-0.0133,-0.0204,-0.0059,-0.004,0.0024,0.0027,0.0044,0.0049,0.019,0.019,0.019,0.0115,0,0,0,0,0,0,-0.0455,-0.0446,-0.0451,-0.0381,-0.0365,-0.0327,-0.0283,-0.0267,-0.0238,-0.0231,-0.0135,-0.0117,-0.0057,0.0014,0.003,0.0037,0.0055,0.019,0.019,0.019,0.0117,0.0113,0.0108,0,0,0,0,0,-0.0458,-0.0472,-0.0452,-0.0443,-0.0374,-0.0328,-0.0315,-0.0258,-0.0238,-0.0231,-0.0162,-0.012,0.0026,0.0019,0.0039,0.0047,0.019,0.019,0.019,0.0119,0.0113,0.0109,0,0,0,0,0,0,-0.0515,-0.0462,-0.0439,-0.0436,-0.039,-0.0314,-0.0306,-0.0267,-0.0208,-0.0202,-0.0115,-0.0093,-0.0038,0.0013,0.0003,0.009,0.0113,0.0117,0.0053,0.0048,0.0043,0.0025,0.006,0,0,0,0,0,-0.0532,-0.0528,-0.0466,-0.0465,-0.0447,-0.0379,-0.0354,-0.0316,-0.0255,-0.0228,-0.0159,-0.0087,-0.0022,0.0018,0.0078,0.0129,0.0187,0.0146,0.0141,0.0137,0.0135,0.0225,0.0229,0.0191,0.0191,0.0191,0,0,-0.0555,-0.0526,-0.0524,-0.0477,-0.0438,-0.0418,-0.0362,-0.0334,-0.0309,-0.0218,-0.0168,-0.0104,-0.0015,0.0042,0.0071,0.0087,0.0177,0.0137,0.0133,0.0134,0.0226,0.023,0.0233,0.0191,0.0191,0.0191,0,0,-0.0604,-0.0573,-0.0587,-0.0552,-0.0504,-0.0456,-0.0454,-0.0382,-0.0342,-0.0288,-0.0216,-0.0148,-0.0055,0.0018,0.0065,0.0073,0.0144,0.0085,0.0059,0.0146,0.015,0.0154,0.0224,0.0236,0.009,0.009,0.009,0,-0.0636,-0.0639,-0.0584,-0.0583,-0.0561,-0.0481,-0.0483,-0.0429,-0.0343,-0.0305,-0.0286,-0.013,-0.0062,0.003,0.0029,0.0064,0.0116,0.0071,0.014,0.0145,0.0151,0.0222,0.0236,0.0086,0.0087,0.0087,0.0088,0,-0.0687,-0.0687,-0.0692,-0.0662,-0.0629,-0.062,-0.054,-0.0499,-0.0444,-0.0378,-0.0286,-0.0183,-0.0091,-0.0057,-0.0011,0.0065,0.0089,0.0116,0.015,0.015,0.0225,0.0241,0.0081,0.0083,0.0084,0.0085,0,0,-0.0765,-0.0738,-0.0738,-0.074,-0.0671,-0.0652,-0.0606,-0.0534,-0.0496,-0.0402,-0.0342,-0.0224,-0.0165,-0.0108,-0.0031,0.0051,0.013,0.0089,0.0095,0.0152,0.0312,0.0365,0.0388,0.0168,0.017,0.0172,0.0346,0,-0.0823,-0.0856,-0.081,-0.0822,-0.083,-0.0737,-0.0699,-0.0618,-0.053,-0.045,-0.0322,-0.024,-0.0183,-0.0139,-0.0051,0.009,0.0167,0.008,0.031,0.0316,0.0359,0.0407,0.0465,0.0628,0.0361,0.0364,0.0365,0,-0.0887,-0.0899,-0.0937,-0.0905,-0.0897,-0.0883,-0.0798,-0.0751,-0.0608,-0.0537,-0.0423,-0.0319,-0.018,-0.0144,0.0099,0.0039,0.0156,0.0266,0.0276,0.0363,0.0399,0.0589,0.0667,0.0861,0.039,0.0388,0.0386,0,-0.098,-0.0981,-0.1019,-0.1009,-0.0961,-0.0948,-0.0908,-0.0784,-0.0734,-0.059,-0.0531,-0.0353,-0.0257,-0.0081,0.0141,0.012,0.0408,0.0413,0.0574,0.0579,0.0695,0.0706,0.0986,0.057,0.0569,0.0569,0.0568,0,-0.1062,-0.1086,-0.1071,-0.1093,-0.1119,-0.1042,-0.1025,-0.0949,-0.083,-0.0761,-0.0593,-0.0487,-0.0237,-0.0039,0.0139,0.0418,0.0414,0.0585,0.0639,0.0669,0.0675,0.0902,0.0955,0.0575,0.0574,0.0572,0.0571,0,-0.1158,-0.1149,-0.1194,-0.1176,-0.1172,-0.1191,-0.1127,-0.1098,-0.097,-0.0873,-0.0832,-0.0577,-0.03,-0.0038,0.0277,0.0427,0.0808,0.0767,0.0779,0.083,0.1138,0.1182,0.1489,0.16,0.0973,0.0976,0.0978,0,-0.1211,-0.1249,-0.1279,-0.1312,-0.1311,-0.1317,-0.131,-0.1195,-0.1145,-0.091,-0.0866,-0.0579,-0.0342,0.0148,0.0474,0.0821,0.0948,0.1049,0.1022,0.1188,0.1278,0.1301,0.1372,0.1147,0.1151,0.1153,0.1155,0,-0.1306,-0.1319,-0.1357,-0.1439,-0.1463,-0.1471,-0.1443,-0.1426,-0.1258,-0.112,-0.0879,-0.0664,-0.0169,0.0283,0.0723,0.0928,0.1197,0.1114,0.1309,0.1461,0.1486,0.1607,0.098,0.118,0.1177,0.1176,0.1174,0.1173,-0.1366,-0.1425,-0.1483,-0.1552,-0.1586,-0.1599,-0.1591,-0.151,-0.1396,-0.1137,-0.0918,-0.0515,0.0111,0.0768,0.0997,0.1493,0.1417,0.1633,0.168,0.1694,0.1791,0.1203,0.1441,0.144,0.144,0.1439,0.1438,0,-0.1434,-0.1494,-0.1582,-0.1653,-0.1704,-0.1687,-0.165,-0.1582,-0.1431,-0.1122,-0.0827,-0.0058,0.0558,0.1111,0.1795,0.2049,0.2091,0.2174,0.224,0.2291,0.1817,0.1815,0.2119,0.2118,0.2118,0.2118,0.2118,0.2118,-0.1469,-0.1574,-0.1623,-0.173,-0.177,-0.1773,-0.1741,-0.1591,-0.1361,-0.0841,-0.0354,0.0034,0.0823,0.1908,0.253,0.2582,0.278,0.2759,0.2857,0.2542,0.2495,0.245,0.2467,0.2901,0.2902,0.3333,0.3338,0.3341]}],[{"header":{"parameterUnit":"m.s-1","parameterCategory":2,"la1":30.2991,"la2":30.254,"lo1":-89.0895,"lo2":-89.0444,"dy":0.0017,"dx":0.0017,"nx":28,"ny":28,"refTime":"2025-12-04T03:00:00:Z","depth":"2","parameterNumber":2,"parameterNumberName":"U-component_of_CURRENTS"},"data":[0,0,0,0,0,0,0,0,0,0,0,0,0,0,0,0,0,0,0,0,0,0,0,0,0,0,0,0,0,0,0,0,0,0,0,0,0,0,0,0,0,0,0,0,0,0,0,0,0,0,0,0,0,0,0,0,0,0,-0.3184,-0.3185,0,-0.3215,-0.3215,-0.3216,-0.3193,-0.3192,-0.3191,-0.3191,-0.3139,-0.3138,-0.3138,0,0,0,0,0,0,0,0,0,0,0,0,0,-0.3089,-0.3091,-0.3184,-0.3185,-0.3186,-0.3215,-0.3215,-0.3216,-0.3193,-0.3192,-0.3191,-0.319,-0.3139,-0.3139,-0.3138,0,0,0,0,0,0,0,0,0,0,0,0,0,-0.3123,-0.3091,-0.3184,-0.318,-0.3181,-0.3215,-0.3215,-0.3216,-0.3193,-0.3192,-0.3191,-0.319,-0.314,-0.3139,-0.3138,-0.3152,0,0,-0.3134,-0.3134,0,0,0,0,0,0,0,0,-0.3121,-0.3126,-0.318,-0.3181,-0.3181,-0.3202,-0.3163,-0.3191,-0.3193,-0.3185,-0.3191,-0.3189,-0.3156,-0.3153,-0.3158,-0.3149,-0.3147,-0.3134,-0.3134,-0.3133,-0.3133,0,0,0,0,0,0,0,-0.3119,-0.3125,-0.3193,-0.3181,-0.3182,-0.3172,-0.3175,-0.3168,-0.3171,-0.3185,-0.3185,-0.3194,-0.3155,-0.3159,-0.3156,-0.3146,-0.3134,-0.3133,-0.3133,-0.3132,-0.3167,-0.3169,0,0,0,0,0,0,-0.3124,-0.3123,-0.3192,-0.3194,-0.3152,-0.3175,-0.3178,-0.3194,-0.3173,-0.3171,-0.3195,-0.3193,-0.3161,-0.3157,-0.3154,-0.3184,-0.3133,-0.3132,-0.3131,-0.3166,-0.3168,-0.3169,0,0,0,0,0,0,-0.3122,-0.3131,-0.3191,-0.3161,-0.3169,-0.3178,-0.3195,-0.3195,-0.3201,-0.3182,-0.3177,-0.3201,-0.316,-0.3156,-0.316,-0.3181,-0.3132,-0.3131,-0.3164,-0.3166,-0.3169,-0.3234,0,0,0,0,0,0,-0.312,-0.313,-0.3139,-0.3162,-0.3171,-0.322,-0.3196,-0.3196,-0.321,-0.3208,-0.3186,-0.318,-0.3159,-0.3162,-0.3159,-0.3178,-0.313,-0.3162,-0.3165,-0.3168,-0.323,-0.3238,-0.3246,0,0,0,0,0,-0.3116,-0.3138,-0.3139,-0.3148,-0.3185,-0.3222,-0.3226,-0.3225,-0.3211,-0.3224,-0.3211,-0.3181,-0.3178,-0.3162,-0.3158,-0.3178,-0.316,-0.3164,-0.3168,-0.3226,-0.3237,-0.3245,0,0,0,0,0,0,-0.3097,-0.3138,-0.3141,-0.3172,-0.3199,-0.3219,-0.3231,-0.3233,-0.3234,-0.3227,-0.3199,-0.3194,-0.3205,-0.3188,-0.3171,-0.32,-0.3165,-0.3168,-0.3212,-0.3221,-0.3229,-0.323,-0.3129,0,0,0,0,0,-0.3101,-0.3125,-0.3162,-0.3184,-0.3201,-0.3217,-0.3229,-0.3236,-0.3243,-0.3243,-0.323,-0.3219,-0.3219,-0.3216,-0.321,-0.3226,-0.3194,-0.3238,-0.3246,-0.3253,-0.3253,-0.3232,-0.3237,-0.3181,-0.3181,-0.3181,0,0,-0.3095,-0.3123,-0.3133,-0.3181,-0.3197,-0.3235,-0.3221,-0.325,-0.3276,-0.3237,-0.3257,-0.3244,-0.323,-0.3247,-0.3251,-0.3234,-0.3253,-0.3257,-0.3263,-0.326,-0.3236,-0.3241,-0.3245,-0.3184,-0.3183,-0.3183,0,0,-0.3105,-0.3127,-0.3154,-0.3187,-0.3229,-0.3247,-0.326,-0.329,-0.3297,-0.3323,-0.3301,-0.3303,-0.3303,-0.3299,-0.3296,-0.3346,-0.3295,-0.3348,-0.3387,-0.3367,-0.337,-0.3373,-0.3339,-0.3338,-0.3352,-0.3352,-0.3353,0,-0.3096,-0.3138,-0.3166,-0.3209,-0.3236,-0.3256,-0.3295,-0.3317,-0.3342,-0.335,-0.3336,-0.3342,-0.3328,-0.3348,-0.3369,-0.3362,-0.3336,-0.335,-0.3375,-0.3377,-0.3379,-0.3343,-0.3341,-0.3356,-0.3356,-0.3355,-0.3355,0,-0.313,-0.3169,-0.319,-0.325,-0.3286,-0.3322,-0.3366,-0.3392,-0.3399,-0.3412,-0.3431,-0.3418,-0.3416,-0.3422,-0.341,-0.3428,-0.34,-0.3385,-0.3347,-0.3388,-0.3348,-0.3345,-0.3361,-0.336,-0.3359,-0.3358,0,0,-0.3089,-0.3193,-0.3198,-0.3232,-0.3311,-0.3339,-0.3397,-0.3444,-0.3466,-0.3485,-0.3505,-0.3516,-0.3499,-0.3495,-0.3481,-0.3473,-0.3466,-0.3442,-0.3439,-0.3399,-0.341,-0.3322,-0.331,-0.3453,-0.3453,-0.3453,-0.3375,0,-0.31,-0.3179,-0.3233,-0.3299,-0.3341,-0.3394,-0.3444,-0.349,-0.3513,-0.3538,-0.3536,-0.3545,-0.3531,-0.3526,-0.352,-0.348,-0.3462,-0.3488,-0.3382,-0.3378,-0.3289,-0.3305,-0.3075,-0.298,-0.3372,-0.3371,-0.3371,0,-0.3104,-0.316,-0.3228,-0.3323,-0.3346,-0.3389,-0.3456,-0.3504,-0.3557,-0.3575,-0.359,-0.3585,-0.3588,-0.3563,-0.3513,-0.3529,-0.3477,-0.3441,-0.3437,-0.3328,-0.3285,-0.3002,-0.2959,-0.3365,-0.3366,-0.3366,-0.3366,0,-0.3039,-0.3149,-0.3197,-0.3233,-0.3346,-0.3379,-0.3431,-0.35,-0.3535,-0.3586,-0.3602,-0.361,-0.3593,-0.3555,-0.349,-0.35,-0.3416,-0.3414,-0.3284,-0.3277,-0.3044,-0.3016,-0.3368,-0.3368,-0.3368,-0.3368,-0.3368,0,-0.3021,-0.3056,-0.3169,-0.3195,-0.3245,-0.334,-0.3387,-0.3445,-0.3519,-0.3544,-0.36,-0.3603,-0.3589,-0.3545,-0.3493,-0.337,-0.3411,-0.3285,-0.3251,-0.3062,-0.3038,-0.3346,-0.3344,-0.3365,-0.3366,-0.3366,-0.3367,0,-0.2932,-0.3014,-0.3069,-0.3184,-0.3214,-0.3242,-0.3353,-0.3382,-0.3473,-0.3506,-0.3521,-0.358,-0.3522,-0.3487,-0.3407,-0.3345,-0.3256,-0.3199,-0.2975,-0.2916,-0.3133,-0.3136,-0.3053,-0.3049,-0.3046,-0.3044,-0.3041,0,-0.2892,-0.2911,-0.3022,-0.3039,-0.3086,-0.3151,-0.319,-0.3325,-0.3362,-0.3472,-0.3469,-0.3467,-0.3411,-0.3283,-0.3176,-0.305,-0.3144,-0.2777,-0.2762,-0.3125,-0.3101,-0.3109,-0.3116,-0.2476,-0.2469,-0.2464,-0.2459,0,-0.2786,-0.2825,-0.2861,-0.2911,-0.2953,-0.3006,-0.3079,-0.3108,-0.3249,-0.3287,-0.3302,-0.3274,-0.3184,-0.2953,-0.2822,-0.2726,-0.2788,-0.2663,-0.3071,-0.2608,-0.2579,-0.2556,-0.2582,-0.2411,-0.2416,-0.2419,-0.2422,-0.2424,-0.2672,-0.2668,-0.2713,-0.2742,-0.279,-0.2809,-0.2791,-0.288,-0.2908,-0.2902,-0.3027,-0.2896,-0.2856,-0.2526,-0.2393,-0.2295,-0.2485,-0.237,-0.2387,-0.241,-0.2374,-0.2342,-0.2122,-0.2125,-0.2128,-0.213,-0.2132,0,-0.2505,-0.2517,-0.2537,-0.256,-0.2531,-0.2628,-0.2663,-0.2592,-0.2544,-0.2585,-0.2556,-0.2261,-0.2125,-0.2093,-0.1875,-0.184,-0.1823,-0.1758,-0.1739,-0.1788,-0.1831,-0.1767,-0.1353,-0.1351,-0.1349,-0.1347,0,0,-0.2413,-0.2362,-0.2379,-0.2277,-0.2288,-0.2185,-0.2157,-0.2079,-0.2052,-0.1904,-0.1843,-0.1987,-0.2024,-0.1681,-0.161,-0.1448,-0.1598,-0.1373,-0.1997,-0.2021,-0.2062,-0.2182,-0.2137,0,0,0,0,0]},{"header":{"parameterUnit":"m.s-1","parameterCategory":2,"la1":30.2991,"la2":30.254,"lo1":-89.0895,"lo2":-89.0444,"dy":0.0017,"dx":0.0017,"nx":28,"ny":28,"refTime":"2025-12-04T03:00:00:Z","depth":"2","parameterNumber":3,"parameterNumberName":"V-component_of_CURRENTS"},"data":[0,0,0,0,0,0,0,0,0,0,0,0,0,0,0,0,0,0,0,0,0,0,0,0,0,0,0,0,0,0,0,0,0,0,0,0,0,0,0,0,0,0,0,0,0,0,0,0,0,0,0,0,0,0,0,0,0,0,-0.0408,-0.0407,0,-0.0286,-0.0285,-0.0283,-0.0202,-0.0202,-0.0201,-0.0201,-0.0031,-0.0026,-0.0022,0,0,0,0,0,0,0,0,0,0,0,0,0,-0.0493,-0.0492,-0.0408,-0.0406,-0.0405,-0.0287,-0.0285,-0.0283,-0.0202,-0.0202,-0.0201,-0.0201,-0.0032,-0.0027,-0.0022,0,0,0,0,0,0,0,0,0,0,0,0,0,-0.0421,-0.0492,-0.0408,-0.0352,-0.0346,-0.0287,-0.0285,-0.0282,-0.0202,-0.0202,-0.0201,-0.0201,-0.0034,-0.0027,-0.0021,0.0006,0,0,-0.0002,0.0001,0,0,0,0,0,0,0,0,-0.0425,-0.0417,-0.0362,-0.0356,-0.0349,-0.026,-0.0252,-0.0184,-0.0202,-0.0255,-0.0201,-0.02,-0.0105,-0.0092,-0.0069,0.0014,0.0021,-0.0002,0.0002,0.0005,0.0007,0,0,0,0,0,0,0,-0.043,-0.0422,-0.0358,-0.036,-0.0352,-0.0307,-0.0296,-0.0239,-0.0182,-0.025,-0.0244,-0.0234,-0.01,-0.0075,-0.0064,0.0024,-0.0002,0.0004,0.0008,0.001,0.0154,0.0154,0,0,0,0,0,0,-0.0454,-0.0427,-0.0362,-0.0354,-0.0388,-0.0306,-0.0294,-0.0288,-0.0183,-0.0168,-0.0235,-0.0231,-0.0086,-0.0072,-0.0058,-0.0009,0.0005,0.0011,0.0014,0.0154,0.0154,0.0155,0,0,0,0,0,0,-0.0456,-0.0449,-0.0367,-0.0389,-0.0376,-0.0306,-0.0299,-0.0286,-0.0261,-0.0173,-0.0156,-0.0224,-0.0085,-0.0067,-0.0005,-0.0002,0.0014,0.0019,0.0154,0.0154,0.0154,0.0083,0,0,0,0,0,0,-0.0459,-0.0451,-0.0456,-0.0391,-0.0375,-0.034,-0.0299,-0.0284,-0.0256,-0.025,-0.0157,-0.0141,-0.0083,-0.0015,0.0001,0.0007,0.0024,0.0154,0.0154,0.0154,0.0085,0.008,0.0076,0,0,0,0,0,-0.0463,-0.0476,-0.0457,-0.0449,-0.0384,-0.0341,-0.0329,-0.0275,-0.0257,-0.025,-0.0184,-0.0144,-0.0003,-0.001,0.0009,0.0017,0.0154,0.0154,0.0154,0.0087,0.0081,0.0077,0,0,0,0,0,0,-0.0516,-0.0467,-0.0445,-0.0443,-0.04,-0.0328,-0.032,-0.0284,-0.0227,-0.0221,-0.0138,-0.0117,-0.0065,-0.0015,-0.0025,0.0058,0.0081,0.0084,0.0023,0.0018,0.0014,-0.0005,0.0029,0,0,0,0,0,-0.0532,-0.0529,-0.0471,-0.047,-0.0453,-0.0389,-0.0366,-0.033,-0.0272,-0.0246,-0.018,-0.0111,-0.0049,-0.0011,0.0047,0.0096,0.0151,0.0112,0.0108,0.0104,0.0101,0.0187,0.0191,0.0155,0.0155,0.0155,0,0,-0.0554,-0.0527,-0.0525,-0.0481,-0.0445,-0.0426,-0.0373,-0.0347,-0.0324,-0.0237,-0.0189,-0.0127,-0.0042,0.0012,0.004,0.0056,0.0142,0.0104,0.01,0.0099,0.0188,0.0192,0.0195,0.0155,0.0155,0.0155,0,0,-0.06,-0.0572,-0.0586,-0.0553,-0.0507,-0.0462,-0.046,-0.0392,-0.0354,-0.0303,-0.0235,-0.0169,-0.0079,-0.001,0.0035,0.0042,0.011,0.0054,0.0028,0.0112,0.0115,0.0119,0.0186,0.0197,0.0059,0.0059,0.0059,0,-0.0631,-0.0635,-0.0582,-0.0582,-0.0562,-0.0486,-0.0489,-0.0437,-0.0356,-0.032,-0.0301,-0.0152,-0.0087,0.0,-0.0,0.0034,0.0083,0.0039,0.0106,0.0111,0.0116,0.0184,0.0197,0.0055,0.0056,0.0056,0.0057,0,-0.0679,-0.068,-0.0685,-0.0657,-0.0627,-0.0618,-0.0542,-0.0504,-0.0452,-0.039,-0.0303,-0.0203,-0.0115,-0.0083,-0.0038,0.0033,0.0056,0.0084,0.0116,0.0116,0.0187,0.0201,0.0051,0.0052,0.0053,0.0054,0,0,-0.0753,-0.0728,-0.0729,-0.0731,-0.0667,-0.0649,-0.0606,-0.0539,-0.0504,-0.0415,-0.0358,-0.0245,-0.0188,-0.0134,-0.0059,0.0018,0.0094,0.0056,0.0062,0.0115,0.0268,0.0314,0.0335,0.0132,0.0134,0.0136,0.03,0,-0.0808,-0.0841,-0.0797,-0.081,-0.0819,-0.0732,-0.0696,-0.0621,-0.0538,-0.0463,-0.0339,-0.0263,-0.0206,-0.0166,-0.008,0.0055,0.013,0.0047,0.0267,0.0273,0.0309,0.0353,0.0293,0.0437,0.0315,0.0317,0.0319,0,-0.0869,-0.0882,-0.0919,-0.0891,-0.0884,-0.0872,-0.0795,-0.075,-0.0615,-0.0549,-0.0439,-0.0341,-0.0208,-0.0171,0.0062,0.0004,0.0118,0.0223,0.0233,0.0311,0.0347,0.0421,0.0468,0.0344,0.0342,0.034,0.0339,0,-0.0958,-0.0961,-0.0998,-0.099,-0.0946,-0.0936,-0.0899,-0.0784,-0.0738,-0.0602,-0.0547,-0.0376,-0.0285,-0.0114,0.0098,0.0079,0.0354,0.0361,0.0513,0.0517,0.0529,0.053,0.0513,0.0513,0.0512,0.0512,0.0511,0,-0.1037,-0.1061,-0.1049,-0.107,-0.1098,-0.1026,-0.1014,-0.0943,-0.0832,-0.0769,-0.0607,-0.0509,-0.0268,-0.0078,0.0095,0.0361,0.0359,0.0522,0.0573,0.0501,0.0499,0.0465,0.0457,0.0518,0.0517,0.0515,0.0514,0,-0.1128,-0.112,-0.1166,-0.1151,-0.1149,-0.1169,-0.1113,-0.1088,-0.0968,-0.0879,-0.0841,-0.0599,-0.0337,-0.0084,0.0219,0.0365,0.0606,0.0691,0.0585,0.0621,0.0706,0.0693,0.0878,0.0881,0.0883,0.0886,0.0888,0,-0.1179,-0.1216,-0.1248,-0.1282,-0.1283,-0.1292,-0.1288,-0.1181,-0.1137,-0.0919,-0.0878,-0.0608,-0.0385,0.0083,0.0381,0.0712,0.0702,0.0831,0.0791,0.0718,0.0749,0.0731,0.0714,0.0775,0.0775,0.0776,0.0777,0,-0.127,-0.1283,-0.1322,-0.1404,-0.1431,-0.1441,-0.1419,-0.1405,-0.125,-0.1122,-0.0899,-0.0699,-0.0243,0.0127,0.0542,0.0721,0.0774,0.0856,0.084,0.0687,0.0634,0.0659,0.0644,0.0783,0.0782,0.0782,0.0781,0.0781,-0.1329,-0.1386,-0.1444,-0.1513,-0.1549,-0.1566,-0.1562,-0.1487,-0.1384,-0.1147,-0.0947,-0.0589,-0.0253,0.0362,0.0634,0.0883,0.089,0.0935,0.0928,0.0921,0.0875,0.083,0.1006,0.1007,0.1007,0.1008,0.1008,0,-0.1394,-0.1453,-0.154,-0.1612,-0.1663,-0.165,-0.162,-0.1553,-0.1414,-0.1148,-0.088,-0.0453,-0.003,0.0325,0.0725,0.0962,0.0918,0.0985,0.0871,0.0865,0.0859,0.0805,0.0921,0.0921,0.0921,0.0922,0,0,-0.1427,-0.1529,-0.1577,-0.1685,-0.1727,-0.1734,-0.1707,-0.1559,-0.1356,-0.106,-0.0774,-0.0423,0.0006,0.0262,0.0546,0.0748,0.074,0.0759,0.0805,0.063,0.0621,0.0811,0.0719,0,0,0,0,0]}],[{"header":{"parameterUnit":"m.s-1","parameterCategory":2,"la1":30.2991,"la2":30.254,"lo1":-89.0895,"lo2":-89.0444,"dy":0.0017,"dx":0.0017,"nx":28,"ny":28,"refTime":"2025-12-04T03:00:00:Z","depth":"4","parameterNumber":2,"parameterNumberName":"U-component_of_CURRENTS"},"data":[0,0,0,0,0,0,0,0,0,0,0,0,0,0,0,0,0,0,0,0,0,0,0,0,0,0,0,0,0,0,0,0,0,0,0,0,0,0,0,0,0,0,0,0,0,0,0,0,0,0,0,0,0,0,0,0,0,0,-0.2152,-0.2153,0,-0.2237,-0.2238,-0.2238,-0.2291,-0.2292,-0.2292,-0.2293,-0.2352,-0.2353,-0.2354,0,0,0,0,0,0,0,0,0,0,0,0,0,-0.2026,-0.2028,-0.2152,-0.2154,-0.2155,-0.2237,-0.2238,-0.2239,-0.2291,-0.2292,-0.2292,-0.2293,-0.2351,-0.2353,-0.2354,0,0,0,0,0,0,0,0,0,0,0,0,0,-0.209,-0.2029,-0.2152,-0.2193,-0.2197,-0.2237,-0.2238,-0.2239,-0.2291,-0.2292,-0.2292,-0.2293,-0.2351,-0.2352,-0.2354,-0.2349,0,0,-0.2359,-0.236,0,0,0,0,0,0,0,0,-0.2087,-0.2095,-0.2185,-0.219,-0.2195,-0.2256,-0.2215,-0.2275,-0.2291,-0.2253,-0.2293,-0.2294,-0.2318,-0.2323,-0.2334,-0.2351,-0.2354,-0.2359,-0.236,-0.2361,-0.2361,0,0,0,0,0,0,0,-0.2082,-0.2091,-0.2183,-0.2187,-0.2193,-0.2204,-0.2213,-0.2227,-0.2278,-0.2256,-0.2261,-0.2274,-0.2321,-0.2332,-0.2336,-0.2355,-0.2359,-0.2361,-0.2362,-0.2362,-0.2477,-0.2479,0,0,0,0,0,0,-0.2077,-0.2087,-0.2181,-0.2186,-0.2145,-0.2205,-0.2216,-0.2234,-0.2278,-0.2287,-0.2273,-0.2276,-0.2329,-0.2334,-0.2338,-0.2432,-0.2361,-0.2362,-0.2363,-0.2475,-0.2478,-0.248,0,0,0,0,0,0,-0.2074,-0.2084,-0.2177,-0.214,-0.2153,-0.2207,-0.2226,-0.2235,-0.2286,-0.2292,-0.23,-0.2319,-0.233,-0.2335,-0.2389,-0.2431,-0.2363,-0.2365,-0.2473,-0.2476,-0.2479,-0.2558,0,0,0,0,0,0,-0.207,-0.2083,-0.2111,-0.214,-0.2155,-0.2228,-0.2226,-0.2236,-0.2291,-0.2297,-0.2333,-0.2337,-0.2331,-0.2387,-0.2391,-0.2432,-0.2366,-0.247,-0.2474,-0.2478,-0.2553,-0.2564,-0.2573,0,0,0,0,0,-0.2065,-0.2096,-0.2112,-0.2124,-0.2186,-0.2229,-0.2239,-0.2277,-0.2293,-0.2323,-0.2352,-0.2338,-0.2414,-0.239,-0.2394,-0.2437,-0.2468,-0.2473,-0.2478,-0.2549,-0.2562,-0.2573,0,0,0,0,0,0,-0.2056,-0.2105,-0.2123,-0.2168,-0.2209,-0.224,-0.2277,-0.23,-0.2347,-0.2363,-0.2364,-0.2371,-0.2431,-0.2426,-0.2399,-0.2483,-0.2439,-0.2445,-0.2492,-0.2504,-0.2514,-0.2506,-0.2367,0,0,0,0,0,-0.2066,-0.2104,-0.2147,-0.2186,-0.2211,-0.2251,-0.2281,-0.2309,-0.2345,-0.2369,-0.2396,-0.2423,-0.2447,-0.2471,-0.2488,-0.2536,-0.2504,-0.2567,-0.2577,-0.2585,-0.2582,-0.2573,-0.2581,-0.2495,-0.2495,-0.2495,0,0,-0.2074,-0.2106,-0.213,-0.2188,-0.2224,-0.227,-0.2272,-0.2331,-0.2377,-0.2366,-0.2447,-0.246,-0.2467,-0.2521,-0.2548,-0.2528,-0.2594,-0.2591,-0.2598,-0.259,-0.2579,-0.2587,-0.2594,-0.2499,-0.2498,-0.2498,0,0,-0.2095,-0.214,-0.2177,-0.2218,-0.2283,-0.2309,-0.2335,-0.2393,-0.2432,-0.2499,-0.2503,-0.2544,-0.2592,-0.2603,-0.2611,-0.2686,-0.2644,-0.2703,-0.2751,-0.2743,-0.2749,-0.2754,-0.2725,-0.2726,-0.2711,-0.2711,-0.2711,0,-0.2106,-0.2155,-0.2195,-0.2243,-0.2285,-0.2332,-0.2382,-0.2427,-0.2498,-0.2528,-0.254,-0.2613,-0.2625,-0.2672,-0.2704,-0.2708,-0.2688,-0.2704,-0.2754,-0.2758,-0.2762,-0.273,-0.2731,-0.2715,-0.2715,-0.2714,-0.2714,0,-0.2142,-0.2201,-0.223,-0.2305,-0.2355,-0.2409,-0.2471,-0.2532,-0.2583,-0.2616,-0.269,-0.271,-0.2747,-0.2767,-0.2762,-0.2806,-0.2778,-0.2762,-0.2718,-0.2775,-0.2738,-0.2738,-0.2722,-0.272,-0.2719,-0.2718,0,0,-0.2109,-0.2232,-0.2246,-0.2294,-0.2395,-0.2433,-0.2523,-0.2597,-0.2648,-0.2721,-0.2774,-0.2832,-0.2841,-0.2851,-0.2855,-0.286,-0.2876,-0.2834,-0.2832,-0.2794,-0.2846,-0.2662,-0.2643,-0.2871,-0.2872,-0.2872,-0.2808,0,-0.2127,-0.2219,-0.2282,-0.2377,-0.2426,-0.2507,-0.2579,-0.2657,-0.2719,-0.2783,-0.2819,-0.287,-0.2874,-0.2897,-0.2907,-0.288,-0.2879,-0.2893,-0.2804,-0.2801,-0.2622,-0.2638,-0.2874,-0.2807,-0.2807,-0.2807,-0.2807,0,-0.2128,-0.2195,-0.229,-0.241,-0.2441,-0.2511,-0.2622,-0.2693,-0.2787,-0.2835,-0.2894,-0.2916,-0.2954,-0.2941,-0.2927,-0.2938,-0.2903,-0.2876,-0.2872,-0.2668,-0.2615,-0.2739,-0.2805,-0.2805,-0.2805,-0.2805,-0.2805,0,-0.2056,-0.2193,-0.2269,-0.2313,-0.2457,-0.2523,-0.2602,-0.271,-0.2765,-0.2866,-0.29,-0.2951,-0.2968,-0.2952,-0.2912,-0.2924,-0.2865,-0.2867,-0.2666,-0.2653,-0.2803,-0.2798,-0.2845,-0.2845,-0.2845,-0.2845,-0.2846,0,-0.2023,-0.2087,-0.225,-0.229,-0.2378,-0.2496,-0.2589,-0.2673,-0.278,-0.2818,-0.2918,-0.2928,-0.2972,-0.2947,-0.2913,-0.2768,-0.2862,-0.266,-0.2619,-0.2839,-0.2839,-0.2802,-0.2798,-0.2843,-0.2844,-0.2844,-0.2844,0,-0.1921,-0.2034,-0.2126,-0.2294,-0.2347,-0.241,-0.2571,-0.2618,-0.2745,-0.2794,-0.2825,-0.2908,-0.2866,-0.287,-0.2822,-0.2731,-0.2638,-0.2567,-0.2787,-0.2763,-0.2435,-0.2436,-0.2329,-0.2322,-0.2316,-0.2311,-0.2307,0,-0.1871,-0.1911,-0.2096,-0.2143,-0.2226,-0.2343,-0.2406,-0.2574,-0.2613,-0.2744,-0.2732,-0.2761,-0.2783,-0.2553,-0.2599,-0.2496,-0.2472,-0.2412,-0.2438,-0.2408,-0.2381,-0.2391,-0.2401,-0.2297,-0.2296,-0.2294,-0.2293,0,-0.1758,-0.1844,-0.1914,-0.2017,-0.2106,-0.2184,-0.2291,-0.2301,-0.2461,-0.2608,-0.255,-0.2515,-0.2458,-0.2409,-0.2338,-0.2279,-0.2446,-0.2348,-0.2361,-0.2386,-0.2368,-0.2349,-0.2365,-0.2272,-0.2275,-0.2277,-0.2278,0,-0.1662,-0.1681,-0.1781,-0.1849,-0.1951,-0.197,-0.2064,-0.2099,-0.2162,-0.232,-0.2292,-0.2331,-0.242,-0.2293,-0.2235,-0.2151,-0.2125,-0.2059,-0.2087,-0.211,-0.2069,-0.2016,-0.1759,0,0,0,0,0,-0.1547,-0.1542,-0.1596,-0.1661,-0.1755,-0.1807,-0.1947,-0.2044,-0.2208,-0.2098,-0.2188,-0.2129,-0.2046,-0.2079,-0.194,-0.2134,-0.2132,-0.1966,-0.2072,-0.2156,-0.218,-0.2152,0,0,0,0,0,0,-0.1467,-0.1507,-0.1528,-0.1477,-0.1479,-0.1558,-0.1634,-0.1756,-0.1714,-0.1886,-0.1844,-0.1984,-0.1927,-0.2066,-0.1884,-0.1892,-0.1912,-0.2015,-0.2008,-0.2142,-0.2164,-0.2183,-0.2163,0,0,0,0,0]},{"header":{"parameterUnit":"m.s-1","parameterCategory":2,"la1":30.2991,"la2":30.254,"lo1":-89.0895,"lo2":-89.0444,"dy":0.0017,"dx":0.0017,"nx":28,"ny":28,"refTime":"2025-12-04T03:00:00:Z","depth":"4","parameterNumber":3,"parameterNumberName":"V-component_of_CURRENTS"},"data":[0,0,0,0,0,0,0,0,0,0,0,0,0,0,0,0,0,0,0,0,0,0,0,0,0,0,0,0,0,0,0,0,0,0,0,0,0,0,0,0,0,0,0,0,0,0,0,0,0,0,0,0,0,0,0,0,0,0,-0.0318,-0.0317,0,-0.0239,-0.0238,-0.0237,-0.0184,-0.0184,-0.0184,-0.0184,-0.0053,-0.005,-0.0047,0,0,0,0,0,0,0,0,0,0,0,0,0,-0.0362,-0.0361,-0.0318,-0.0317,-0.0316,-0.024,-0.0238,-0.0237,-0.0184,-0.0184,-0.0184,-0.0184,-0.0054,-0.005,-0.0046,0,0,0,0,0,0,0,0,0,0,0,0,0,-0.0317,-0.0361,-0.0318,-0.0282,-0.0278,-0.024,-0.0238,-0.0237,-0.0184,-0.0184,-0.0184,-0.0183,-0.0055,-0.0051,-0.0046,-0.0022,0,0,-0.0031,-0.0029,0,0,0,0,0,0,0,0,-0.032,-0.0316,-0.0288,-0.0284,-0.028,-0.0223,-0.0206,-0.0163,-0.0184,-0.0218,-0.0184,-0.0183,-0.0106,-0.0097,-0.0081,-0.0016,-0.001,-0.003,-0.0027,-0.0025,-0.0024,0,0,0,0,0,0,0,-0.0323,-0.0318,-0.0285,-0.0287,-0.0282,-0.0249,-0.0243,-0.0197,-0.0163,-0.0215,-0.0211,-0.0206,-0.0103,-0.0086,-0.0078,-0.0008,-0.003,-0.0026,-0.0023,-0.0021,0.0092,0.0092,0,0,0,0,0,0,-0.034,-0.0322,-0.0287,-0.0283,-0.0301,-0.0249,-0.0242,-0.024,-0.0164,-0.0153,-0.0206,-0.0204,-0.0095,-0.0084,-0.0073,-0.0037,-0.0025,-0.0021,-0.0018,0.0092,0.0092,0.0092,0,0,0,0,0,0,-0.0341,-0.0338,-0.0291,-0.0301,-0.0293,-0.0249,-0.0247,-0.0239,-0.0225,-0.0158,-0.0146,-0.0202,-0.0094,-0.008,-0.0033,-0.0032,-0.0018,-0.0014,0.0092,0.0092,0.0092,0.0033,0,0,0,0,0,0,-0.0343,-0.0339,-0.0347,-0.0303,-0.0293,-0.0276,-0.0247,-0.0237,-0.0222,-0.0218,-0.015,-0.0137,-0.0093,-0.0041,-0.0028,-0.0025,-0.001,0.0091,0.0092,0.0092,0.0035,0.0031,0.0028,0,0,0,0,0,-0.0345,-0.0358,-0.0348,-0.0344,-0.0305,-0.0277,-0.0269,-0.0234,-0.0223,-0.022,-0.0171,-0.014,-0.0032,-0.0037,-0.0022,-0.0017,0.0091,0.0092,0.0092,0.0037,0.0032,0.0028,0,0,0,0,0,0,-0.0381,-0.0352,-0.0341,-0.0344,-0.0317,-0.0269,-0.0267,-0.0242,-0.0202,-0.0199,-0.0135,-0.0119,-0.008,-0.0041,-0.0049,0.0015,0.0034,0.0037,-0.0013,-0.0017,-0.002,-0.004,-0.0006,0,0,0,0,0,-0.0394,-0.0398,-0.036,-0.0365,-0.0355,-0.0313,-0.03,-0.0276,-0.0235,-0.0218,-0.0168,-0.0116,-0.0068,-0.0038,0.0007,0.0045,0.0088,0.0057,0.0053,0.005,0.0044,0.0117,0.012,0.0092,0.0092,0.0092,0,0,-0.0411,-0.0396,-0.0399,-0.0374,-0.0351,-0.0342,-0.0304,-0.029,-0.0277,-0.0209,-0.0178,-0.0129,-0.0062,-0.0021,0.0001,0.0013,0.008,0.005,0.0047,0.0043,0.0118,0.0121,0.0123,0.0092,0.0092,0.0092,0,0,-0.0447,-0.0433,-0.0447,-0.0428,-0.0401,-0.0371,-0.0372,-0.0327,-0.0302,-0.0266,-0.0214,-0.0163,-0.0095,-0.004,-0.0005,0.0,0.0054,0.0009,-0.0016,0.0055,0.0058,0.0061,0.0112,0.0121,0.0013,0.0013,0.0013,0,-0.047,-0.048,-0.0446,-0.045,-0.0441,-0.039,-0.0397,-0.0362,-0.0306,-0.0283,-0.0267,-0.0155,-0.0101,-0.0035,-0.0036,-0.0007,0.0032,-0.0006,0.005,0.0055,0.0059,0.0111,0.012,0.001,0.0011,0.0011,0.0011,0,-0.0507,-0.0517,-0.0523,-0.0511,-0.0494,-0.0493,-0.0443,-0.042,-0.0385,-0.0341,-0.0279,-0.0199,-0.0131,-0.0105,-0.0068,-0.0012,0.0005,0.0032,0.0058,0.0058,0.0113,0.0124,0.0006,0.0007,0.0008,0.0009,0,0,-0.0555,-0.0553,-0.0556,-0.0566,-0.0528,-0.0521,-0.0496,-0.0454,-0.0436,-0.0369,-0.0332,-0.0242,-0.0196,-0.0154,-0.0092,-0.0029,0.0034,0.0005,0.001,0.0049,0.0176,0.0153,0.0164,0.007,0.0072,0.0073,0.0199,0,-0.0596,-0.0633,-0.0608,-0.0633,-0.0645,-0.0591,-0.0573,-0.0524,-0.0469,-0.0417,-0.0319,-0.0264,-0.0213,-0.0182,-0.011,-0.0,0.0061,-0.0004,0.0176,0.0181,0.0156,0.0176,0.0079,0.0208,0.0211,0.0213,0.0214,0,-0.0638,-0.0658,-0.0701,-0.0701,-0.07,-0.0703,-0.0664,-0.0638,-0.0544,-0.0497,-0.0413,-0.0335,-0.0229,-0.0192,-0.0002,-0.0048,0.005,0.0135,0.0143,0.0149,0.0179,0.0213,0.0235,0.0233,0.0232,0.023,0.0229,0,-0.0694,-0.0718,-0.0761,-0.0761,-0.0751,-0.0758,-0.0744,-0.0671,-0.0645,-0.0547,-0.051,-0.0372,-0.0299,-0.0155,0.0018,0.001,0.0224,0.0242,0.0316,0.0315,0.0324,0.0319,0.0369,0.0368,0.0368,0.0368,0.0367,0,-0.0741,-0.0774,-0.0801,-0.0824,-0.0868,-0.0829,-0.0843,-0.0799,-0.0729,-0.069,-0.0563,-0.0493,-0.0287,-0.0137,0.0011,0.0197,0.0226,0.0312,0.035,0.0294,0.0285,0.0331,0.0325,0.0372,0.0371,0.0371,0.037,0,-0.0788,-0.0806,-0.0863,-0.0888,-0.0902,-0.0933,-0.0928,-0.092,-0.0845,-0.0787,-0.076,-0.0573,-0.0373,-0.0167,0.0083,0.0183,0.0365,0.0422,0.0338,0.0369,0.0407,0.0397,0.0512,0.0512,0.0513,0.0513,0.0513,0,-0.0813,-0.0851,-0.0926,-0.0972,-0.0993,-0.103,-0.1048,-0.0993,-0.0968,-0.0827,-0.0794,-0.0599,-0.0457,-0.0112,0.009,0.0368,0.0401,0.0477,0.0446,0.0398,0.0425,0.0413,0.0403,0.0513,0.0513,0.0514,0.0514,0,-0.0856,-0.0894,-0.0941,-0.1045,-0.1097,-0.1134,-0.1147,-0.1138,-0.1044,-0.0984,-0.0796,-0.0601,-0.0372,-0.011,0.0105,0.0302,0.0417,0.048,0.0481,0.0452,0.0402,0.0425,0.0414,0.0515,0.0514,0.0514,0.0514,0,-0.0884,-0.0936,-0.1014,-0.1093,-0.117,-0.1203,-0.1207,-0.1145,-0.1099,-0.0929,-0.0869,-0.0599,-0.0435,-0.0143,0.0059,0.0246,0.0284,0.0321,0.033,0.0332,0.0234,0.0141,0.021,0,0,0,0,0,-0.0898,-0.0958,-0.1049,-0.1132,-0.121,-0.124,-0.1249,-0.1227,-0.1144,-0.1018,-0.0933,-0.0707,-0.037,-0.0214,-0.0029,0.0031,0.0284,0.0247,0.0323,0.052,0.0519,0.0433,0,0,0,0,0,0,-0.0908,-0.0998,-0.1048,-0.1142,-0.1199,-0.126,-0.1264,-0.1212,-0.112,-0.1013,-0.0824,-0.0692,-0.0363,-0.0471,-0.0031,0.0027,0.0091,0.0418,0.0421,0.0521,0.052,0.0519,0.043,0,0,0,0,0]}]]